Terminal Aerodrome Forecast
Issued by NWS

Current Version | Previous Version | Text Only | Print | Product List | Glossary On
Versions: 1 2 3 4 5 6 7 8 9 10 11 12 13 14 15 16 17 18 19 20 21 22 23 24 25 26 27
000 FTUS41 KOKX 300231 AAA TAFGON TAF AMD KGON 300231Z 3003/3024 23005KT P6SM FEW050 SCT250 FM301400 23008KT P6SM SCT050 BKN100 FM302000 23009KT P6SM BKN050 BKN100=

USA.gov is the U.S. government's official web portal to all federal, state and local government web resources and services.